Location: Arrien
(43.3167°N, 0.1500°W)
Time: 04:02:57
(UTC+00:00)

Meteor 1-21 Rocket - Pass Details

Date: 15 October 2021
Orbit: 834 x 906 km, 81.2° (Epoch: 02 December)

Event Time Altitude Azimuth Distance (km) Brightness Sun altitude
Rises 18:22:23 0° 352° (N) 3,487 7.5 -12.6°
Reaches altitude 10° 18:24:51 10° 356° (N) 2,555 6.8 -13.0°
Maximum altitude 18:30:38 64° 77° (ENE) 986 4.3 -14.1°
Drops below altitude 10° 18:36:28 10° 159° (SSE) 2,574 6.5 -15.1°
Sets 18:38:58 0° 163° (SSE) 3,515 7.2 -15.6°
